Atlantic, IA

10:15 AM CST on January 23, 2018 (GMT -0600)
Atlantic Municipal

Weather History for KAIO - November, 2013

Change the Weather History Date:

Friday, November 1, 2013

  Actual Average Record
Temperature  
Mean Temperature 47 °F -  
Max Temperature 57 °F 52 °F 73 °F (2001)
Min Temperature 37 °F 33 °F 17 °F (2006)
Degree Days  
Heating Degree Days 18    
Moisture  
Dew Point 38 °F    
Average Humidity 77    
Maximum Humidity 93    
Minimum Humidity 48    
Precipitation  
Precipitation 0.03 in - - ()
Sea Level Pressure  
Sea Level Pressure 29.74 in    
Wind  
Wind Speed 10 mph (WNW)    
Max Wind Speed 23 mph    
Max Gust Speed 30 mph    
Visibility 10 miles    
Events Rain    
Averages and records for this station are not official NWS values.
T = Trace of Precipitation, MM = Missing Value Source: NWS Daily Summary

Daily Weather History Graph

Daily Weather History Graph

Search for Another Location

Airport or City:

Trip Planner

Search our weather history database for the weather conditions in past years. The results will help you decide how hot, cold, wet, or windy it might be!

Date:

Astronomy

Nov. 01, 2013 Rise Set
Actual Time 7:52 AM CDT 6:14 PM CDT
Civil Twilight 7:23 AM CDT 6:43 PM CDT
Nautical Twilight 6:50 AM CDT 7:16 PM CDT
Astronomical Twilight 6:18 AM CDT 7:48 PM CDT
Moon 5:44 AM CDT (11/1) 5:09 PM CDT (11/1)
Length of Visible Light 11h 20m
Length of Day
10h 22m
Waning Crescent, 4% of the Moon is Illuminated
Nov 1
Waning Crescent
Nov 3
New
Nov 9
First Quarter
Nov 17
Full
Nov 25
Last Quarter

Hourly Weather History & Observations

Time (CDT) Temp. Windchill Dew Point Humidity Pressure Visibility Wind Dir Wind Speed Gust Speed Precip Events Conditions
12:15 AM 41.0 °F 35.2 °F 37.4 °F 87% 29.55 in 10.0 mi West 9.2 mph - N/A   Mostly Cloudy
12:35 AM 42.8 °F 37.0 °F 37.4 °F 81% 29.56 in 10.0 mi West 10.4 mph - N/A   Scattered Clouds
12:55 AM 37.4 °F 32.1 °F 33.8 °F 87% 29.56 in 10.0 mi WSW 6.9 mph - N/A   Mostly Cloudy
1:15 AM 41.0 °F 35.8 °F 35.6 °F 81% 29.57 in 10.0 mi West 8.1 mph - N/A   Mostly Cloudy
1:35 AM 42.8 °F 37.0 °F 35.6 °F 76% 29.57 in 10.0 mi West 10.4 mph - N/A   Mostly Cloudy
1:55 AM 41.0 °F 36.4 °F 35.6 °F 81% 29.58 in 10.0 mi West 6.9 mph - N/A   Mostly Cloudy
2:15 AM 41.0 °F 35.8 °F 35.6 °F 81% 29.58 in 10.0 mi West 8.1 mph - N/A   Scattered Clouds
2:35 AM 41.0 °F 36.4 °F 35.6 °F 81% 29.59 in 10.0 mi West 6.9 mph - N/A   Mostly Cloudy
2:55 AM 41.0 °F 37.1 °F 35.6 °F 81% 29.60 in 10.0 mi WSW 5.8 mph - N/A   Scattered Clouds
3:15 AM 41.0 °F 36.4 °F 35.6 °F 81% 29.60 in 10.0 mi West 6.9 mph - N/A   Mostly Cloudy
3:35 AM 41.0 °F 36.4 °F 35.6 °F 81% 29.61 in 10.0 mi West 6.9 mph - N/A   Mostly Cloudy
3:55 AM 41.0 °F 35.8 °F 35.6 °F 81% 29.62 in 10.0 mi West 8.1 mph - N/A   Overcast
4:15 AM 41.0 °F 35.8 °F 35.6 °F 81% 29.62 in 10.0 mi West 8.1 mph - N/A   Overcast
4:35 AM 41.0 °F 35.2 °F 35.6 °F 81% 29.61 in 10.0 mi West 9.2 mph - N/A   Mostly Cloudy
4:55 AM 41.0 °F 35.2 °F 35.6 °F 81% 29.63 in 10.0 mi West 9.2 mph - N/A   Mostly Cloudy
5:15 AM 41.0 °F 35.2 °F 35.6 °F 81% 29.63 in - WNW 9.2 mph - N/A   Overcast
5:35 AM 41.0 °F 35.2 °F 35.6 °F 81% 29.64 in 10.0 mi West 9.2 mph - N/A   Overcast
5:55 AM 39.2 °F 32.5 °F 35.6 °F 87% 29.65 in 10.0 mi West 10.4 mph - N/A   Mostly Cloudy
6:15 AM 39.2 °F 34.2 °F 35.6 °F 87% 29.66 in 10.0 mi WSW 6.9 mph - N/A   Mostly Cloudy
6:35 AM 39.2 °F 34.2 °F 37.4 °F 93% 29.66 in 10.0 mi WSW 6.9 mph - N/A   Overcast
6:55 AM 37.4 °F 32.8 °F 35.6 °F 93% 29.67 in 10.0 mi West 5.8 mph - N/A   Mostly Cloudy
7:15 AM 39.2 °F 33.0 °F 37.4 °F 93% 29.67 in 10.0 mi West 9.2 mph - N/A   Mostly Cloudy
7:35 AM 41.0 °F 34.7 °F 37.4 °F 87% 29.68 in 10.0 mi West 10.4 mph - N/A   Overcast
7:55 AM 41.0 °F 35.2 °F 37.4 °F 87% 29.69 in 10.0 mi WNW 9.2 mph - N/A   Mostly Cloudy
8:15 AM 41.0 °F 35.8 °F 37.4 °F 87% 29.69 in 10.0 mi WNW 8.1 mph - N/A   Mostly Cloudy
8:35 AM 41.0 °F 36.4 °F 37.4 °F 87% 29.71 in 10.0 mi West 6.9 mph - N/A   Overcast
8:55 AM 41.0 °F 35.8 °F 37.4 °F 87% 29.72 in 10.0 mi West 8.1 mph - N/A   Overcast
9:15 AM 41.0 °F 36.4 °F 37.4 °F 87% 29.73 in 10.0 mi West 6.9 mph - N/A   Overcast
9:35 AM 42.8 °F 38.6 °F 39.2 °F 87% 29.74 in 10.0 mi WSW 6.9 mph - N/A   Mostly Cloudy
9:55 AM 42.8 °F 38.6 °F 39.2 °F 87% 29.74 in 10.0 mi West 6.9 mph - N/A   Scattered Clouds
10:15 AM 44.6 °F 40.2 °F 39.2 °F 81% 29.74 in 10.0 mi West 8.1 mph - N/A   Partly Cloudy
10:35 AM 44.6 °F 39.7 °F 41.0 °F 87% 29.74 in 10.0 mi West 9.2 mph - N/A   Partly Cloudy
10:55 AM 48.2 °F - 41.0 °F 76% 29.75 in 10.0 mi West 13.8 mph - N/A   Partly Cloudy
11:15 AM 50.0 °F - 41.0 °F 71% 29.75 in 10.0 mi WNW 16.1 mph - N/A   Partly Cloudy
11:35 AM 50.0 °F - 39.2 °F 66% 29.76 in 10.0 mi WNW 16.1 mph - N/A   Clear
11:55 AM 50.0 °F - 39.2 °F 66% 29.76 in 10.0 mi WNW 12.7 mph 19.6 mph N/A   Mostly Cloudy
12:15 PM 51.8 °F - 39.2 °F 62% 29.77 in 10.0 mi WNW 12.7 mph 19.6 mph N/A   Mostly Cloudy
12:35 PM 51.8 °F - 39.2 °F 62% 29.77 in 10.0 mi WNW 16.1 mph - N/A   Mostly Cloudy
12:55 PM 53.6 °F - 39.2 °F 58% 29.77 in 10.0 mi WNW 17.3 mph - N/A   Scattered Clouds
1:15 PM 55.4 °F - 39.2 °F 54% 29.76 in 10.0 mi NW 12.7 mph 20.7 mph N/A   Partly Cloudy
1:35 PM 55.4 °F - 39.2 °F 54% 29.76 in - WNW 15.0 mph 21.9 mph N/A   Mostly Cloudy
1:55 PM 55.4 °F - 39.2 °F 54% 29.76 in 10.0 mi WNW 19.6 mph 25.3 mph N/A   Mostly Cloudy
2:15 PM 55.4 °F - 39.2 °F 54% 29.77 in 10.0 mi NW 18.4 mph 25.3 mph N/A   Partly Cloudy
2:35 PM 55.4 °F - 37.4 °F 51% 29.77 in 10.0 mi NW 16.1 mph 29.9 mph N/A   Mostly Cloudy
2:55 PM 57.2 °F - 37.4 °F 48% 29.76 in 10.0 mi NW 18.4 mph 26.5 mph N/A   Scattered Clouds
3:15 PM 57.2 °F - 37.4 °F 48% 29.77 in 10.0 mi NW 23.0 mph - N/A   Clear
4:55 PM 53.6 °F - 39.2 °F 58% 29.78 in 10.0 mi NW 10.4 mph - N/A   Mostly Cloudy
5:15 PM 53.6 °F - 39.2 °F 58% 29.80 in 9.0 mi NNW 23.0 mph - N/A   Overcast
5:35 PM 50.0 °F - 39.2 °F 66% 29.79 in 10.0 mi NW 9.2 mph - N/A   Mostly Cloudy
5:55 PM 50.0 °F - 37.4 °F 62% 29.80 in 10.0 mi WNW 8.1 mph - N/A   Partly Cloudy
6:15 PM 50.0 °F - 39.2 °F 66% 29.81 in 10.0 mi NW 10.4 mph - N/A   Mostly Cloudy
6:35 PM 46.4 °F 39.5 °F 41.0 °F 81% 29.84 in 5.0 mi NNW 17.3 mph 24.2 mph N/A Rain Rain
6:55 PM 46.4 °F 41.5 °F 41.0 °F 81% 29.85 in 10.0 mi NW 10.4 mph - 0.03 in   Overcast
7:15 PM 46.4 °F 42.4 °F 39.2 °F 76% 29.85 in 10.0 mi NW 8.1 mph 15.0 mph N/A   Mostly Cloudy
7:35 PM 46.4 °F 41.5 °F 39.2 °F 76% 29.86 in 10.0 mi WNW 10.4 mph - N/A   Mostly Cloudy
7:55 PM 44.6 °F 39.7 °F 39.2 °F 81% 29.86 in 10.0 mi WNW 9.2 mph - N/A   Partly Cloudy
8:15 PM 44.6 °F 39.7 °F 37.4 °F 76% 29.87 in 10.0 mi WNW 9.2 mph - N/A   Clear
8:35 PM 44.6 °F 38.4 °F 37.4 °F 76% 29.88 in 10.0 mi WNW 12.7 mph - N/A   Clear
8:55 PM 44.6 °F 38.1 °F 39.2 °F 81% 29.88 in 10.0 mi WNW 13.8 mph - N/A   Mostly Cloudy
9:15 PM 44.6 °F 38.4 °F 39.2 °F 81% 29.89 in 10.0 mi WNW 12.7 mph 23.0 mph N/A   Mostly Cloudy
9:35 PM 42.8 °F 35.4 °F 39.2 °F 87% 29.90 in 10.0 mi WNW 15.0 mph 20.7 mph N/A   Mostly Cloudy
9:55 PM 42.8 °F 35.4 °F 39.2 °F 87% 29.91 in 10.0 mi WNW 15.0 mph 20.7 mph N/A   Mostly Cloudy
10:15 PM 42.8 °F 36.2 °F 39.2 °F 87% 29.91 in 10.0 mi WNW 12.7 mph - N/A   Mostly Cloudy
10:35 PM 44.6 °F 38.4 °F 41.0 °F 87% 29.92 in 10.0 mi WNW 12.7 mph - N/A   Overcast
10:55 PM 44.6 °F 38.8 °F 41.0 °F 87% 29.93 in 10.0 mi WNW 11.5 mph - N/A   Overcast
11:15 PM 44.6 °F 39.2 °F 41.0 °F 87% 29.93 in 10.0 mi WNW 10.4 mph 18.4 mph N/A   Overcast
11:35 PM 44.6 °F 37.4 °F 41.0 °F 87% 29.94 in 9.0 mi NW 16.1 mph - N/A   Overcast
11:55 PM 44.6 °F 39.2 °F 41.0 °F 87% 29.94 in 10.0 mi WNW 10.4 mph - N/A   Overcast